Home > Weather > Moncton > Past weeks

Flag for Canada Weather for the Past 2 Weeks in Moncton, New Brunswick, Canada

Now
7 °F

Snow flurries. Passing clouds.


Feels Like: 7 °F
Forecast: 7 / 22 °F
Wind: 2 mph from Northwest

Location: Moncton

Current Time: Feb 8, 2016 at 4:58:27 AM

Latest Report: Feb 8, 2016 at 4:00 AM


Visibility: 15 mi

Pressure: 30.28 "Hg

Humidity: 66%

Dew point: -2 °F

Location of MonctonLocation

Historic Weather in Moncton — Graph

°F

Moncton Temperature Yesterday

Maximum temperature yesterday: 36 °F (at 11:00 AM)
Minimum temperature yesterday: 12 °F (at 10:00 PM)
Average temperature yesterday: 26 °F

High & Low Weather Summary for the Past Weeks

 TemperatureHumidityPressure
High52 °F (Feb 1, 2:00 PM)100% (Jan 31, 8:00 AM)30.53 "Hg (Jan 31, 8:00 AM)
Low7 °F (Feb 8, 3:00 AM)31% (Jan 28, 1:00 PM)29.26 "Hg (Jan 29, 6:00 PM)
Average28 °F77%29.92 "Hg
* Reported Jan 24 3:00 AM — Feb 8 3:00 AM, Moncton, Weather by CustomWeather, © 2016

Note: Actual official high and low records may vary slightly from our data, if they occured in-between our weather recording intervals... More about our weather records

Advertising

Moncton Weather History for the Previous 24 Hours

 ConditionsComfort  
Time TempWeatherWind HumidityBarometerVisibility
3:00 AM
Mon, Feb 8
7 °FSnow flurries. Passing clouds.5 mph66%30.29 "Hg15 mi
2:00 AM9 °FPassing clouds.6 mph61%30.28 "Hg15 mi
1:00 AM10 °FPassing clouds.7 mph56%30.27 "Hg15 mi
12:00 AM10 °FPassing clouds.13 mph56%30.26 "Hg15 mi
11:00 PM
Sun, Feb 7
12 °FPassing clouds.13 mph52%30.26 "Hg15 mi
10:00 PM12 °FPassing clouds.10 mph52%30.27 "Hg15 mi
9:00 PM14 °FPassing clouds.14 mph48%30.25 "Hg15 mi
8:00 PM16 °FPassing clouds.13 mph45%30.24 "Hg15 mi
7:00 PM18 °FPassing clouds.18 mph45%30.22 "Hg15 mi
6:00 PM19 °FPassing clouds.13 mph42%30.20 "Hg15 mi
5:00 PM23 °FLow level haze.16 mph39%30.15 "Hg15 mi
4:00 PM27 °FLow level haze.15 mph46%30.11 "Hg15 mi
3:00 PM32 °FLow level haze.18 mph55%30.02 "Hg15 mi
2:00 PM34 °FLow level haze.24 mph56%29.97 "Hg15 mi
1:00 PM34 °FLow level haze.26 mph60%29.97 "Hg15 mi
12:00 PM34 °FScattered clouds.24 mph65%29.98 "Hg15 mi
11:00 AM36 °FPartly sunny.17 mph70%29.97 "Hg15 mi
10:00 AM34 °FPartly sunny.12 mph75%29.96 "Hg15 mi
9:02 AM30 °FLight snow. More clouds than sun.13 mph80%29.99 "Hg2 mi
8:00 AM30 °FOvercast.8 mph80%29.98 "Hg15 mi
7:00 AM30 °FOvercast.8 mph80%29.98 "Hg15 mi
6:00 AM28 °FPassing clouds.10 mph80%29.99 "Hg15 mi
5:00 AM28 °FPassing clouds.12 mph80%30.00 "Hg15 mi
4:00 AM27 °FPassing clouds.10 mph80%30.03 "Hg15 mi
Weather by CustomWeather, © 2016

See weather overviewHow to use our weather pages